Tracking 19224 objects as of 23-Jul-2018
HD Live streaming from Space Station
objects crossing your sky now

SL-12 DEB

Track SL-12 DEB now!
10-day predictions


NORAD ID: 41701
Int'l Code: 2010-007T
Perigee: 1,146.8 km
Apogee: 18,919.7 km
Inclination: 65.3 °
Period: 348.5 minutes
Semi major axis: 16404 km
RCS: Unknown
Launch date: March 1, 2010
Source: Commonwealth of Independent States (former USSR) (CIS)
Launch site: TYURATAM MISSILE AND SPACE COMPLEX (TTMTR)

Note: This is SATELLITE DEBRIS
aabbcc
Your satellite tracking list
Your tracking list is empty




NASA's NSSDC Master Catalog

Two Line Element Set (TLE):
1 41701U 10007T   18203.15750069  .00000089  00000-0  10000-2 0  9998
2 41701  65.2671 202.5135 5417170  49.3314 346.5053  4.13207312 59710
Source of the keplerian elements: AFSPC